Regional Weather Roundup
Issued by NWS Charleston, SC

Current Version | Previous Version | Graphics & Text | Print | Product List | Glossary On
Versions: 1 2 3 4 5 6 7 8 9 10 11 12 13 14 15 16 17 18 19 20 21 22 23 24 25 26 27 28 29 30 31 32 33 34 35 36 37 38 39 40 41 42 43 44 45 46 47 48 49 50
000
ASUS42 KCHS 280412
RWRCHS

REGIONAL WEATHER ROUNDUP
NATIONAL WEATHER SERVICE CHARLESTON SC
1200 AM EDT SAT MAR 28 2015

NOTE: "FAIR" INDICATES FEW OR NO CLOUDS BELOW 12,000 FEET WITH NO
SIGNIFICANT WEATHER AND/OR OBSTRUCTIONS TO VISIBILITY.

NOT ALL STATIONS ARE QUALITY CONTROLLED BY THE NATIONAL
WEATHER SERVICE. USE DATA WITH CAUTION...ESPECIALLY
DEWPOINT OBSERVATIONS.

SCZ027-030-031-034>040-042>050-280500-
...SOUTHEAST SOUTH CAROLINA...

CITY           SKY/WX    TMP DP  RH WIND       PRES   REMARKS
N CHARLESTON   CLOUDY    50  46  86 NW12      29.88R
WATERFRONT PRK   N/A     52 N/A N/A N9G15       N/A
MOUNT PLEASANT DRIZZLE   48  48 100 NW6       29.88R
PINOPOLIS        N/A     52  46  82 N13       29.80R
MONCKS CORNER  RAIN      50  45  81 NW6       29.89R
SUMMERVILLE    CLOUDY    50  46  87 NW5       29.91R
BEAUFORT MCAS  PTCLDY    51  45  79 N9        29.89R
BEAUFORT ARPT  MOCLDY    52  46  82 N10       29.89R
HILTON HEAD IS PTCLDY    54  48  82 N8        29.90R
WALTERBORO     MOCLDY    46  43  87 NW7       29.91R
ALLENDALE      FAIR      48  45  87 CALM      29.92R

...SOUTHERN MIDLANDS AND PEE DEE...

CITY           SKY/WX    TMP DP  RH WIND       PRES   REMARKS
GEORGETOWN     NOT AVBL
KINGSTREE      NOT AVBL
ORANGEBURG     LGT RAIN  48  42  80 N3        29.92R
BARNWELL       MOCLDY    46  45  93 CALM      29.93R
AIKEN          CLOUDY    43  41  93 W5        29.95R
MANNING        HVY RAIN  46  36  66 NW3       29.90R
COLUMBIA       CLOUDY    47  43  86 W6        29.89R
SUMTER         LGT RAIN  46  43  87 W8        29.88R
FLORENCE       CLOUDY    46  43  89 NW6       29.87R
MYRTLE BEACH   CLOUDY    46  39  76 N7        29.86R
N MYRTLE BEACH MOCLDY    45  42  89 CALM      29.83S

$$

GAZ063-065-086>088-099>101-113>116-118-119-134>141-150-280500-
...SOUTHEAST GEORGIA...

CITY           SKY/WX    TMP DP  RH WIND       PRES   REMARKS
SAVANNAH ARPT  PTCLDY    49  36  61 N6        29.90R
HUNTER AAF     CLEAR     47  41  80 W6        29.88R
FORT STEWART   PTCLDY    51  42  69 W7        29.90R
STATESBORO     CLOUDY    52  46  80 N7        29.92R
SYLVANIA       CLOUDY    51  46  84 N7        29.92R
CLAXTON        FAIR      52  37  58 W7        29.92R

...CSRA...CENTRAL AND FAR SOUTHEAST GEORGIA...

CITY           SKY/WX    TMP DP  RH WIND       PRES   REMARKS
THOMSON        CLOUDY    47  45  92 CALM      29.99R
AUGUSTA-BUSH   CLOUDY    48  43  82 CALM      29.93R
AUGUSTA-DANIEL CLOUDY    48  43  82 CALM      29.93R
SWAINSBORO     CLOUDY    54  18  24 NW12G17   29.95R
VIDALIA        CLOUDY    54  36  50 NW13      29.94R
EASTMAN        FAIR      54  32  43 NW9G17    30.00R
HAZLEHURST     MOCLDY    52  34  50 NW5       29.95R
ALMA           CLEAR     52  37  56 W13       29.96R
WAYCROSS       CLEAR     54  44  69 W6        29.96R
JESUP          FAIR      54  45  71 NW5       29.93R
BAXLEY         FAIR      52  37  58 NW6       29.95R
BRUNSWICK      PTCLDY    54  43  66 W9        29.93R
SAINT SIMONS   PTCLDY    55  43  63 W12G20    29.91R

$$

SCZ027-028-034-036>038-045-046-048>050-GAZ119-141-280500-
...LAKE AND SUPPLEMENTAL COASTAL OBSERVATIONS...

STATION/POSITION TIME  TEMP    WIND        PRES    WAVE   SWELL
                       AIR SEA DIR/SP/G            HT/PER HT/PER/DIR
                 (UTC) (F)     (DEG/KT/KT) (MB)    (FT/S) (FT/S/D)
UPR LAKE MARION  NOT AVBL
WINYAH BAY       0245   48      30/  3     1009.0
LAKE MURRAY      0300   46      CALM  /  1 1011.5R
ACE BASIN NERRS  NOT AVBL
FORT PULASKI     0306   55 62  310/  5/  6 1011.9R
SAPELO ISLAND    0300   56     250/ 11     1012.0R

$$

ANZ835-935-AMZ111-154-330-350-352-354-370-450-454-472-280500-
...C-MAN AND BUOY OBSERVATIONS...

STATION/POSITION TIME  TEMP    WIND        PRES    WAVE   SWELL
                       AIR SEA DIR/SP/G            HT/PER HT/PER/DIR
                 (UTC) (F)     (DEG/KT/KT) (MB)    (FT/S) (FT/S/D)
BUOY 41004       0350   54 69  330/ 14/ 17 1009.7R   5/ 6   3/ 8
BUOY 41008       0350   59 60  280/ 17/ 21 1011.7R   3/ 4   2/100/ 8
FOLLY BEACH CMAN 0400   51     310/  7/ 10 1011.6R
CAPERS NEARSHORE 0300   51      10/ 14/ 16   N/A
FRIPP NEARSHORE  0300   55     340/ 12/ 16 1010.9R


STATION/POSITION TIME  TEMP    WIND        PRES    WAVE   SWELL
                       AIR SEA DIR/SP/G            HT/PER HT/PER/DIR
                 (UTC) (F)     (DEG/KT/KT) (MB)    (FT/S) (FT/S/D)
5E ST. MARYS GA  0351      61                N/A     2/ 8
FRYING PAN BUOY  0350   50 65  350/ 21/ 25 1008.9R   8/ 6
BUOY 41025       NOT AVBL
CAPE LOOKOUT NC  0300   44     360/ 17/ 22 1006.5S
BUOY 41002       0350   70 69  210/ 23/ 29 1004.8F  11/ 8
BUOY 41010       0350   74 76  260/ 25/ 31 1009.9F   9/ 7
ST AUGUSTINE FL  0400   56 60  290/  8/ 11 1015.1R


$$



USA.gov is the U.S. government's official web portal to all federal, state and local government web resources and services.